La Coruna Airport, Spain

4:27 PM CET on March 23, 2017 (GMT +0100)
A Coruna

Weather History for LECO - September, 2013

Change the Weather History Date:

Friday, September 20, 2013

  Actual Average Record
Temperature  
Mean Temperature 73 °F -  
Max Temperature 77 °F 67 °F 82 °F (2008)
Min Temperature 69 °F 53 °F 44 °F (2005)
Cooling Degree Days 8    
Growing Degree Days 23 (Base 50)    
Moisture  
Dew Point 68 °F    
Average Humidity 87    
Maximum Humidity 94    
Minimum Humidity 74    
Precipitation  
Precipitation 0.00 in - - ()
Sea Level Pressure  
Sea Level Pressure 30.19 in    
Wind  
Wind Speed 4 mph ()    
Max Wind Speed 13 mph    
Max Gust Speed 22 mph    
Visibility 6.0 miles    
Events Fog    
Averages and records for this station are not official NWS values.
T = Trace of Precipitation, MM = Missing Value Source: Averaged Metar Reports

Daily Weather History Graph

Daily Weather History Graph

Search for Another Location

Airport or City:

Trip Planner

Search our weather history database for the weather conditions in past years. The results will help you decide how hot, cold, wet, or windy it might be!

Date:

Astronomy

Sep. 20, 2013 Rise Set
Actual Time 8:18 AM CEST 8:34 PM CEST
Civil Twilight 7:50 AM CEST 9:02 PM CEST
Nautical Twilight 7:16 AM CEST 9:36 PM CEST
Astronomical Twilight 6:42 AM CEST 10:10 PM CEST
Moon 8:56 PM CEST (9/20) 9:21 AM CEST (9/20)
Length of Visible Light 13h 12m
Length of Day
12h 15m
Full, 99% of the Moon is Illuminated
Sep 20
Full
Sep 27
Last Quarter
Oct 5
New
Oct 12
First Quarter
Oct 19
Full

Hourly Weather History & Observations

Time (CEST) Temp. Dew Point Humidity Pressure Visibility Wind Dir Wind Speed Gust Speed Precip Events Conditions
12:00 AM 69.8 °F 68.0 °F 94% 30.18 in 6.2 mi Variable 2.3 mph - N/A   Mostly Cloudy
12:30 AM 69.8 °F 68.0 °F 94% 30.18 in 6.2 mi Variable 1.2 mph - N/A   Mostly Cloudy
1:00 AM 69.8 °F 68.0 °F 94% 30.18 in 6.2 mi Variable 1.2 mph - N/A   Mostly Cloudy
5:30 AM 69.8 °F 68.0 °F 94% 30.15 in 1.2 mi Calm Calm - N/A Fog Fog
6:00 AM 69.8 °F 68.0 °F 94% 30.15 in 2.2 mi Variable 1.2 mph - N/A Fog Fog
6:12 AM 69.8 °F 68.0 °F 94% 30.15 in 5.6 mi Calm Calm - N/A Fog Mostly Cloudy
6:30 AM 69.8 °F 68.0 °F 94% 30.15 in 6.2 mi Variable 1.2 mph - N/A Fog Mostly Cloudy
7:00 AM 69.8 °F 68.0 °F 94% 30.15 in 6.2 mi Variable 2.3 mph - N/A Fog Mostly Cloudy
7:30 AM 69.8 °F 68.0 °F 94% 30.18 in 6.2 mi Variable 2.3 mph - N/A Fog Mostly Cloudy
8:00 AM 69.8 °F 68.0 °F 94% 30.18 in 6.2 mi Calm Calm - N/A   Mostly Cloudy
8:30 AM 69.8 °F 68.0 °F 94% 30.18 in 6.2 mi Calm Calm - N/A   Mostly Cloudy
9:00 AM 69.8 °F 68.0 °F 94% 30.18 in 6.2 mi Calm Calm - N/A   Mostly Cloudy
9:30 AM 71.6 °F 68.0 °F 88% 30.18 in 6.2 mi Calm Calm - N/A   Mostly Cloudy
10:00 AM 71.6 °F 68.0 °F 88% 30.18 in 6.2 mi Calm Calm - N/A   Mostly Cloudy
10:30 AM 71.6 °F 68.0 °F 88% 30.18 in 6.2 mi Calm Calm - N/A   Mostly Cloudy
11:00 AM 73.4 °F 68.0 °F 83% 30.21 in 6.2 mi Variable 1.2 mph - N/A   Mostly Cloudy
11:30 AM 73.4 °F 68.0 °F 83% 30.21 in 6.2 mi North 5.8 mph - N/A   Mostly Cloudy
12:00 PM 73.4 °F 68.0 °F 83% 30.21 in 6.2 mi North 6.9 mph - N/A   Mostly Cloudy
12:30 PM 75.2 °F 68.0 °F 78% 30.21 in 6.2 mi North 6.9 mph - N/A   Mostly Cloudy
1:00 PM 75.2 °F 68.0 °F 78% 30.21 in 6.2 mi North 9.2 mph - N/A   Mostly Cloudy
1:30 PM 75.2 °F 69.8 °F 83% 30.21 in 6.2 mi North 9.2 mph - N/A   Mostly Cloudy
2:00 PM 75.2 °F 69.8 °F 83% 30.21 in 6.2 mi NNE 9.2 mph - N/A   Mostly Cloudy
2:30 PM 75.2 °F 69.8 °F 83% 30.21 in 6.2 mi North 11.5 mph - N/A   Mostly Cloudy
3:00 PM 77.0 °F 68.0 °F 74% 30.21 in 6.2 mi North 12.7 mph - N/A   Mostly Cloudy
3:30 PM 77.0 °F 68.0 °F 74% 30.21 in 6.2 mi North 12.7 mph - N/A   Scattered Clouds
4:00 PM 77.0 °F 68.0 °F 74% 30.18 in 6.2 mi North 12.7 mph - N/A   Partly Cloudy
4:30 PM 77.0 °F 68.0 °F 74% 30.18 in 6.2 mi North 10.4 mph 21.9 mph N/A   Partly Cloudy
5:00 PM 77.0 °F 68.0 °F 74% 30.18 in 6.2 mi North 10.4 mph - N/A   Partly Cloudy
5:30 PM 77.0 °F 69.8 °F 78% 30.18 in 6.2 mi North 10.4 mph - N/A   Partly Cloudy
6:00 PM 75.2 °F 69.8 °F 83% 30.18 in 6.2 mi North 11.5 mph - N/A   Partly Cloudy
6:30 PM 73.4 °F 69.8 °F 88% 30.18 in 6.2 mi North 12.7 mph - N/A   Partly Cloudy
7:00 PM 73.4 °F 69.8 °F 88% 30.18 in 6.2 mi North 12.7 mph - N/A   Partly Cloudy
7:30 PM 71.6 °F 69.8 °F 94% 30.18 in 6.2 mi North 11.5 mph - N/A   Partly Cloudy
8:00 PM 71.6 °F 69.8 °F 94% 30.18 in 6.2 mi North 9.2 mph - N/A   Partly Cloudy
8:30 PM 71.6 °F 68.0 °F 88% 30.21 in 6.2 mi North 8.1 mph - N/A   Partly Cloudy
9:00 PM 69.8 °F 68.0 °F 94% 30.21 in 6.2 mi North 6.9 mph - N/A   Partly Cloudy
9:30 PM 69.8 °F 68.0 °F 94% 30.21 in 6.2 mi North 5.8 mph - N/A   Partly Cloudy
10:00 PM 71.6 °F 68.0 °F 88% 30.21 in 6.2 mi North 4.6 mph - N/A   Scattered Clouds
10:30 PM 71.6 °F 68.0 °F 88% 30.21 in 6.2 mi North 4.6 mph - N/A   Mostly Cloudy
11:00 PM 71.6 °F 68.0 °F 88% 30.24 in 6.2 mi North 4.6 mph - N/A   Mostly Cloudy
11:30 PM 71.6 °F 68.0 °F 88% 30.24 in 6.2 mi Variable 2.3 mph - N/A   Mostly Cloudy